Flag for Canada Weather past 2 weeks in Quispamsis, New Brunswick, Canada

Now
37 °F

Broken clouds.


Feels Like: 30 °F
Forecast: N/A
Wind: 10 mph from Northwest

Location: Saint John

Current Time: Mar 31, 2015 at 7:23:29 PM

Latest Report: Mar 31, 2015 at 6:00 PM


Visibility: 15 mi

Pressure: 29.58 "Hg

Humidity: 70%

Dew point: 28 °F

Location of QuispamsisLocation

Historic Weather in Quispamsis — Graph

°F

Quispamsis temperature yesterday

Maximum temperature yesterday: 36 °F (at 11:00 AM)
Minimum temperature yesterday: 9 °F (at 7:00 AM)
Average temperature yesterday: 27 °F

Past Weeks' High & Low Weather Summary

 TemperatureHumidityPressure
High41 °F (Mar 25, 2:00 PM)100% (Mar 22, 12:00 AM)30.35 "Hg (Mar 22, 12:00 AM)
Low-2 °F (Mar 17, 5:00 AM)21% (Mar 29, 2:00 PM)29.21 "Hg (Mar 18, 4:00 AM)
Average24 °F71%29.84 "Hg
* Reported Mar 16 6:00 PM — Mar 31 6:00 PM, Quispamsis, Weather by CustomWeather, © 2015

Note: Actual official high and low records may vary slightly from our data, if they occured in-between our weather recording intervals... More about our weather records

Advertising

Quispamsis weather history for previous 24 hours

 ConditionsComfort  
Time TempWeatherWind HumidityBarometerVisibility
6:00 PM
Tue, Mar 31
37 °FBroken clouds.10 mph70%29.58 "Hg15 mi
5:00 PM39 °FPartly sunny.10 mph65%29.56 "Hg15 mi
4:00 PM39 °FBroken clouds.14 mph61%29.54 "Hg15 mi
3:00 PM39 °FMore clouds than sun.14 mph65%29.53 "Hg15 mi
2:00 PM39 °FPartly sunny.13 mph65%29.52 "Hg15 mi
1:00 PM39 °FPartly sunny.9 mph70%29.53 "Hg15 mi
12:00 PM36 °FOvercast.10 mph81%29.54 "Hg15 mi
11:00 AM36 °FOvercast.6 mph87%29.54 "Hg10 mi
10:00 AM36 °FPartly sunny.6 mph87%29.53 "Hg10 mi
9:00 AM34 °FBroken clouds.2 mph100%29.53 "Hg8 mi
8:00 AM32 °FIce fog.No wind100%29.54 "Hg2 mi
7:50 AM32 °FIce fog.No wind100%29.54 "Hg2 mi
7:00 AM32 °FFog.No wind100%29.54 "Hg1 mi
6:00 AM32 °FIce fog.5 mph100%29.54 "Hg1 mi
5:00 AM32 °FLight snow. Ice fog.6 mph100%29.55 "Hg1 mi
4:00 AM32 °FLight snow. Low clouds.9 mph100%29.56 "Hg3 mi
3:00 AM32 °FLight snow. Low clouds.12 mph100%29.59 "Hg2 mi
2:00 AM32 °FLight snow. Low clouds.13 mph100%29.62 "Hg2 mi
1:00 AM32 °FLight snow. Low clouds.15 mph93%29.64 "Hg15 mi
12:00 AM32 °FLight snow. Low clouds.16 mph93%29.67 "Hg15 mi
11:00 PM
Mon, Mar 30
32 °FLight snow. Ice fog.15 mph93%29.70 "Hg3 mi
10:00 PM32 °FLight snow. Ice fog.14 mph93%29.72 "Hg2 mi
9:00 PM32 °FLight snow. Overcast.14 mph87%29.74 "Hg5 mi
8:00 PM34 °FOvercast.18 mph70%29.75 "Hg15 mi
7:00 PM34 °FMostly cloudy.17 mph65%29.77 "Hg15 mi
Weather by CustomWeather, © 2015

See weather overviewHow to use our weather pages